TimeMST,TemperatureF,Dew PointF,Humidity,Sea Level PressureIn,VisibilityMPH,Wind Direction,Wind SpeedMPH,Gust SpeedMPH,PrecipitationIn,Events,Conditions,WindDirDegrees,DateUTC
12:04 AM,37.4,37.4,100,30.17,0.8,NNE,4.6,-,0.02,Rain,Light Rain,20,2013-01-26 07:04:00
12:11 AM,37.4,37.4,100,30.17,0.5,NE,3.5,-,0.03,Fog-Rain,Light Rain,50,2013-01-26 07:11:00
12:30 AM,37.4,37.4,100,30.16,1.0,ENE,4.6,-,0.05,Rain,Light Rain,70,2013-01-26 07:30:00
12:39 AM,37.4,37.4,100,30.15,1.2,NE,4.6,-,0.06,Rain,Light Rain,50,2013-01-26 07:39:00
12:52 AM,37.4,37.4,100,30.15,0.8,ENE,3.5,-,0.07,Rain,Light Rain,60,2013-01-26 07:52:00
12:57 AM,37.0,37.0,100,30.01,0.8,NE,3.5,-,0.07,Rain,Light Rain,50,2013-01-26 07:57:00
1:12 AM,37.4,37.4,100,30.13,0.5,NNE,4.6,-,0.01,Fog-Rain,Light Rain,30,2013-01-26 08:12:00
1:26 AM,37.4,37.4,100,30.13,1.0,Calm,Calm,-,0.03,Rain,Light Rain,0,2013-01-26 08:26:00
1:54 AM,37.4,37.4,100,30.14,1.2,Calm,Calm,-,0.11,Rain,Rain,0,2013-01-26 08:54:00
1:57 AM,37.9,37.9,100,29.99,1.2,Calm,Calm,-,0.12,Rain,Rain,0,2013-01-26 08:57:00
2:05 AM,37.4,37.4,100,30.13,1.0,NE,3.5,-,0.02,Rain,Rain,50,2013-01-26 09:05:00
2:15 AM,37.4,37.4,100,30.13,1.0,Calm,Calm,-,0.05,Rain,Rain,0,2013-01-26 09:15:00
2:24 AM,37.4,37.4,100,30.12,1.0,NNE,3.5,-,0.06,Rain,Light Rain,30,2013-01-26 09:24:00
2:29 AM,37.4,37.4,100,30.11,0.8,ENE,4.6,-,0.07,Rain,Light Rain,60,2013-01-26 09:29:00
2:34 AM,37.4,37.4,100,30.11,1.0,ENE,6.9,-,0.08,Rain,Rain,60,2013-01-26 09:34:00
2:38 AM,37.4,37.4,100,30.10,2.0,ENE,8.1,-,0.08,Rain,Light Rain,60,2013-01-26 09:38:00
2:45 AM,37.4,37.4,100,30.10,3.0,NE,5.8,-,0.09,Rain,Light Rain,50,2013-01-26 09:45:00
2:48 AM,37.4,37.4,100,30.10,1.8,NE,4.6,-,0.09,Rain,Light Rain,50,2013-01-26 09:48:00
2:57 AM,39.0,37.9,96,29.95,1.5,East,3.5,-,0.10,Rain,Light Rain,80,2013-01-26 09:57:00
3:00 AM,39.2,37.4,93,30.09,2.0,ENE,3.5,-,0.00,Rain,Light Rain,70,2013-01-26 10:00:00
3:11 AM,39.2,37.4,93,30.08,4.0,NE,6.9,-,0.02,Rain,Light Rain,40,2013-01-26 10:11:00
3:57 AM,37.9,37.9,100,29.93,4.0,East,4.6,-,0.06,Rain,Light Rain,100,2013-01-26 10:57:00
4:16 AM,37.4,37.4,100,30.05,2.5,East,5.8,-,0.02,Rain,Light Rain,100,2013-01-26 11:16:00
4:31 AM,37.4,37.4,100,30.04,2.5,East,3.5,-,0.04,Rain,Light Rain,80,2013-01-26 11:31:00
4:47 AM,37.4,37.4,100,30.04,3.0,ENE,4.6,-,0.05,Rain,Light Rain,70,2013-01-26 11:47:00
4:55 AM,37.9,37.9,100,29.91,2.5,East,5.8,-,0.06,Rain,Light Rain,90,2013-01-26 11:55:00
5:07 AM,37.4,37.4,100,30.03,1.8,East,6.9,-,0.03,Rain,Rain,80,2013-01-26 12:07:00
5:15 AM,37.4,37.4,100,30.02,2.5,East,4.6,-,0.04,Rain,Light Rain,80,2013-01-26 12:15:00
5:23 AM,37.4,37.4,100,30.02,6.0,NE,3.5,-,0.04,Rain,Light Rain,50,2013-01-26 12:23:00
5:30 AM,37.4,37.4,100,30.02,6.0,NE,4.6,-,0.05,Rain,Light Rain,50,2013-01-26 12:30:00
5:55 AM,37.4,37.4,100,30.02,2.0,NE,3.5,-,0.09,Rain,Rain,50,2013-01-26 12:55:00
5:57 AM,37.9,37.0,97,29.91,2.0,Calm,Calm,-,0.09,Rain,Rain,0,2013-01-26 12:57:00
6:13 AM,37.4,37.4,100,30.02,5.0,ENE,4.6,-,0.04,Rain,Light Rain,60,2013-01-26 13:13:00
6:30 AM,37.4,37.4,100,30.01,5.0,East,3.5,-,0.06,Rain,Light Rain,80,2013-01-26 13:30:00
6:57 AM,37.9,37.0,97,29.91,5.0,ENE,4.6,-,0.10,Rain,Light Rain,70,2013-01-26 13:57:00
7:57 AM,37.9,37.0,97,29.91,2.5,East,3.5,-,0.07,Rain,Rain,100,2013-01-26 14:57:00
8:27 AM,37.4,37.4,100,30.00,3.0,Calm,Calm,-,0.08,Rain,Rain,0,2013-01-26 15:27:00
8:42 AM,37.4,37.4,100,30.00,2.0,Calm,Calm,-,0.14,Rain,Rain,0,2013-01-26 15:42:00
8:57 AM,37.0,37.0,100,29.92,1.2,Calm,Calm,-,0.17,Rain,Rain,0,2013-01-26 15:57:00
9:04 AM,37.4,37.4,100,30.00,3.0,Calm,Calm,-,0.02,Rain,Light Rain,0,2013-01-26 16:04:00
9:19 AM,37.4,37.4,100,30.00,2.0,Calm,Calm,-,0.04,Rain,Light Rain,0,2013-01-26 16:19:00
9:57 AM,39.0,37.9,96,29.90,2.0,Calm,Calm,-,0.11,Rain,Rain,0,2013-01-26 16:57:00
10:01 AM,39.2,37.4,93,29.99,1.8,Calm,Calm,-,0.01,Rain,Rain,0,2013-01-26 17:01:00
10:12 AM,39.2,39.2,100,29.99,2.0,WSW,3.5,-,0.03,Rain,Rain,240,2013-01-26 17:12:00
10:23 AM,41.0,39.2,93,29.99,4.0,SW,9.2,-,0.05,Rain,Light Rain,220,2013-01-26 17:23:00
10:33 AM,41.0,39.2,93,29.99,6.0,SSW,10.4,20.7,0.07,Rain,Light Rain,210,2013-01-26 17:33:00
10:57 AM,41.0,39.9,96,29.87,7.0,SSW,12.7,24.2,0.09,Rain,Light Rain,210,2013-01-26 17:57:00
11:21 AM,39.2,39.2,100,29.98,7.0,SSW,13.8,21.9,0.03,Rain,Light Rain,200,2013-01-26 18:21:00
11:40 AM,39.2,39.2,100,29.97,5.0,SSW,11.5,-,0.06,Rain,Rain,210,2013-01-26 18:40:00
11:57 AM,41.0,39.9,96,29.86,7.0,SSW,10.4,-,0.09,Rain,Light Rain,210,2013-01-26 18:57:00
12:04 PM,41.0,39.2,93,29.96,7.0,SSW,13.8,-,0.01,Rain,Light Rain,210,2013-01-26 19:04:00
12:20 PM,39.2,39.2,100,29.95,5.0,SW,11.5,-,0.03,Rain,Rain,220,2013-01-26 19:20:00
12:38 PM,39.2,39.2,100,29.94,6.0,WSW,5.8,-,0.06,Rain,Light Rain,240,2013-01-26 19:38:00
12:52 PM,41.0,39.2,93,29.93,5.0,SW,10.4,17.3,0.07,Rain,Light Rain,230,2013-01-26 19:52:00
12:57 PM,41.0,39.0,93,29.83,4.0,SSW,16.1,23.0,0.08,Rain,Light Rain,210,2013-01-26 19:57:00
1:08 PM,39.2,39.2,100,29.93,6.0,SW,13.8,-,0.01,Rain,Light Rain,220,2013-01-26 20:08:00
1:17 PM,39.2,39.2,100,29.93,6.0,SSW,13.8,-,0.02,Rain,Light Rain,210,2013-01-26 20:17:00
1:21 PM,39.2,39.2,100,29.93,6.0,SW,15.0,-,0.02,Rain,Light Rain,220,2013-01-26 20:21:00
1:30 PM,39.2,39.2,100,29.92,6.0,SW,13.8,-,0.04,Rain,Light Rain,220,2013-01-26 20:30:00
1:38 PM,39.2,39.2,100,29.92,7.0,SW,9.2,-,0.05,Rain,Light Rain,230,2013-01-26 20:38:00
1:57 PM,39.9,37.9,93,29.81,7.0,WSW,10.4,-,0.06,Rain,Light Rain,240,2013-01-26 20:57:00
2:55 PM,39.2,37.4,93,29.91,8.0,SSW,15.0,20.7,0.07,Rain,Light Rain,210,2013-01-26 21:55:00
2:57 PM,39.0,37.9,96,29.80,9.0,SSW,15.0,20.7,0.07,Rain,Light Rain,210,2013-01-26 21:57:00
3:57 PM,39.9,39.0,97,29.80,8.0,SW,13.8,-,0.05,Rain,Light Rain,220,2013-01-26 22:57:00
4:57 PM,39.9,39.0,97,29.80,8.0,SW,17.3,24.2,0.01,Rain,Light Rain,230,2013-01-26 23:57:00
5:21 PM,39.2,37.4,93,29.91,7.0,SW,16.1,-,0.01,Rain,Light Rain,230,2013-01-27 00:21:00
5:47 PM,39.2,37.4,93,29.92,8.0,SW,15.0,25.3,0.02,Rain,Light Rain,220,2013-01-27 00:47:00
5:57 PM,39.0,37.9,96,29.82,7.0,SW,13.8,-,0.03,Rain,Light Rain,230,2013-01-27 00:57:00
6:16 PM,39.2,37.4,93,29.93,9.0,SW,12.7,-,0.01,Rain,Light Rain,230,2013-01-27 01:16:00
6:45 PM,39.2,37.4,93,29.94,9.0,WSW,11.5,-,0.03,Rain,Light Rain,240,2013-01-27 01:45:00
6:57 PM,39.0,37.9,96,29.84,9.0,WSW,10.4,-,0.03,Rain,Light Rain,240,2013-01-27 01:57:00
7:57 PM,39.0,37.0,93,29.85,9.0,WSW,12.7,-,0.02,Rain,Light Rain,240,2013-01-27 02:57:00
8:53 PM,39.2,37.4,93,29.97,6.0,WSW,10.4,-,0.03,Rain,Light Rain,240,2013-01-27 03:53:00
8:57 PM,39.0,37.0,93,29.88,7.0,SW,10.4,-,0.03,Rain,Light Rain,230,2013-01-27 03:57:00
9:57 PM,37.9,36.0,93,29.88,9.0,WSW,9.2,18.4,0.01,Rain,Light Rain,240,2013-01-27 04:57:00
10:09 PM,37.4,35.6,93,29.99,7.0,SW,8.1,-,0.00,Rain,Light Rain,230,2013-01-27 05:09:00
10:21 PM,37.4,37.4,100,29.99,7.0,WSW,9.2,-,0.00,Rain,Light Rain,240,2013-01-27 05:21:00
10:57 PM,37.9,37.0,97,29.88,9.0,WSW,6.9,-,0.01,,Overcast,240,2013-01-27 05:57:00
11:36 PM,37.4,37.4,100,30.00,7.0,SW,6.9,-,0.02,Rain,Light Rain,230,2013-01-27 06:36:00
11:53 PM,37.4,37.4,100,30.00,5.0,WSW,8.1,-,0.03,Rain,Light Rain,250,2013-01-27 06:53:00
11:57 PM,37.9,37.0,97,29.88,6.0,WSW,5.8,-,0.03,Rain,Light Rain,250,2013-01-27 06:57:00